This is the latest recevied weather packets stored in our database for station/object K6GMW. If no packets are shown the sender has not sent any weather packets the latest 10 day(s).
| Time | Temp. | Humidity | Pressure | Rain* | Wind** | Luminosity | Snow |
|---|---|---|---|---|---|---|---|
| 1777596562 | 16.11° C | 86% | 1014.5 hPa | 0 mm | - | 4 W/m² | - |
| 1777596259 | 16.11° C | 86% | 1014.9 hPa | 0 mm | - | 3 W/m² | - |
| 1777595957 | 16.11° C | 85% | 1014.6 hPa | 0 mm | - | 10 W/m² | - |
| 1777595657 | 16.11° C | 85% | 1014.5 hPa | 0 mm | - | 16 W/m² | - |
| 1777595352 | 16.11° C | 85% | 1014.4 hPa | 0 mm | - | 10 W/m² | - |
| 1777595049 | 16.67° C | 85% | 1014.1 hPa | 0 mm | - | 12 W/m² | - |
| 1777594746 | 16.67° C | 85% | 1014.2 hPa | 0 mm | - | 25 W/m² | - |
| 1777594442 | 16.67° C | 85% | 1014.3 hPa | 0 mm | - | 25 W/m² | - |
| 1777594138 | 16.67° C | 85% | 1014.4 hPa | 0 mm | - | 19 W/m² | - |
| 1777593834 | 16.67° C | 85% | 1014.2 hPa | 0 mm | - | 35 W/m² | - |
| 1777593531 | 16.67° C | 84% | 1014.1 hPa | 0 mm | - | 33 W/m² | - |
| 1777593230 | 16.67° C | 84% | 1014.2 hPa | 0 mm | - | 61 W/m² | - |
| 1777592930 | 16.67° C | 84% | 1014.1 hPa | 0 mm | - | 66 W/m² | - |
| 1777592626 | 16.67° C | 84% | 1014.1 hPa | 0 mm | - | 55 W/m² | - |
| 1777592322 | 16.67° C | 83% | 1014.3 hPa | 0 mm | - | 46 W/m² | - |
| 1777592017 | 16.67° C | 84% | 1014.3 hPa | 0 mm | - | 52 W/m² | - |
| 1777591714 | 16.67° C | 84% | 1014.2 hPa | 0 mm | - | 70 W/m² | - |
| 1777591409 | 16.67° C | 84% | 1013.9 hPa | 0 mm | - | 90 W/m² | - |
| 1777591106 | 16.67° C | 85% | 1014.1 hPa | 0 mm | - | 84 W/m² | - |
| 1777590802 | 16.67° C | 85% | 1014.2 hPa | 0 mm | - | 89 W/m² | - |
| 1777590498 | 16.67° C | 85% | 1014.2 hPa | 0 mm | - | 111 W/m² | - |
| 1777590194 | 16.67° C | 87% | 1014.3 hPa | 0 mm | - | 117 W/m² | - |
| 1777589891 | 16.67° C | 87% | 1014.1 hPa | 0 mm | - | 76 W/m² | - |
| 1777589587 | 16.67° C | 88% | 1014.1 hPa | 0 mm | - | 87 W/m² | - |
| 1777589285 | 16.67° C | 88% | 1014.3 hPa | 0 mm | - | 43 W/m² | - |
* Rain latest hour (hover to see other rain measurements)
** Current wind speed in m/s (hover to see current wind gust speed)